Weather Roundup
Issued by NWS

Home | Current Version | Previous Version | Graphics & Text | Print | Product List | Glossary Off
Versions: 1 2 3 4 5 6 7 8 9 10 11 12 13 14 15 16 17 18 19 20 21 22 23 24 25 26 27 28 29 30 31 32 33 34 35 36 37 38 39 40 41 42 43 44 45 46 47 48 49 50

738
NZUS93 KARX 271310
HRRWXR

CURRENT HOURLY OBSERVATIONS ACROSS
MUCH OF THE UPPER MISSISSIPPI VALLEY
NATIONAL WEATHER SERVICE LA CROSSE WI
800 AM CDT MON MAR 27 2017


...SOUTHEAST MINNESOTA...


CITY           SKY/WX    TMP DP  RH WIND       PRES   REMARKS
ROCHESTER      CLOUDY    37  37 100 N5        29.93F FOG     WCI  33
ROCHESTER/MAYO CLOUDY    38  38 100 N5        29.94F WCI  34
WINONA         CLOUDY    37  37 100 NW5       29.95S WCI  34
AUSTIN         CLOUDY    37  37 100 NW5       29.94S FOG     WCI  34
ALBERT LEA     FOG       37  37 100 N5        29.94S VSB 1   WCI  34
DODGE CENTER   FOG       37  36  93 N6        29.94S VSB 1/4 WCI  33
PRESTON        CLOUDY    37  37  97 N6        29.93F FOG     WCI  33
OWATONNA       CLOUDY    37  36  93 N7        29.95S FOG     WCI  32
FARIBAULT      CLOUDY    37  36  93 N3        29.96F FOG
$$

...ELSEWHERE IN MINNESOTA...


CITY           SKY/WX    TMP DP  RH WIND       PRES   REMARKS
MINNEAPOLIS    CLOUDY    39  34  82 N6        29.97R WCI  35
INTNL FALLS    PTCLDY    27  24  89 CALM      29.97R
DULUTH         CLOUDY    33  32  96 N8        29.93F WCI  26
RED WING       CLOUDY    37  36  93 CALM      29.96S
REDWOOD FALLS  CLOUDY    40  35  83 CALM      29.97R
MANKATO        CLOUDY    38  36  92 N6        29.97S WCI  33
WORTHINGTON    CLOUDY    35  34  96 CALM      29.96S
FAIRMONT       CLOUDY    38  36  92 N6        29.96S WCI  33
$$

...SOUTHWEST WISCONSIN...


CITY           SKY/WX    TMP DP  RH WIND       PRES   REMARKS
LA CROSSE      FOG       42  41  96 CALM      29.95R VSB 1
PRAIRIE DU CHI CLOUDY    41  40  96 CALM      29.95S FOG
BOSCOBEL       CLOUDY    43  41  93 CALM      29.95S FOG
LONE ROCK      CLOUDY    42  40  92 CALM      29.95S FOG
PLATTEVILLE    CLOUDY    41  41 100 N6        29.94S
FORT MC COY    CLOUDY    39  39 100 CALM      29.95S FOG
CAMP DOUGLAS   CLOUDY    41  39  93 CALM      29.93R
MAUSTON-NEW LI CLOUDY    40  40  98 W3        29.93R FOG
VIROQUA        CLOUDY    39  39 100 N3        29.93S VSB 3/4
WIS DELLS      CLOUDY    40  39  99 CALM      29.94R FOG
$$

...ELSEWHERE IN WISCONSIN...


CITY           SKY/WX    TMP DP  RH WIND       PRES   REMARKS
MILWAUKEE      CLOUDY    43  40  89 W3        29.94R
MADISON        CLOUDY    41  39  93 CALM      29.94R
GREEN BAY      CLOUDY    39  39 100 CALM      29.93R
EAU CLAIRE     CLOUDY    37  35  92 CALM      29.95R
BLACK RVR FLS  CLOUDY    40  40 100 CALM      29.94S
MEDFORD        CLOUDY    33  32  96 NW5       29.92R WCI  28
WAUSAU         CLOUDY    35  33  92 N3        29.91R
WIS RAPIDS     CLOUDY    39  39 100 N5        29.94R
MARSHFIELD     CLOUDY    36  34  92 N3        29.91F
RICE LAKE      CLOUDY    35  34  98 CALM      29.97R
$$

...NORTHEAST IOWA...


CITY           SKY/WX    TMP DP  RH WIND       PRES   REMARKS
WATERLOO       CLOUDY    41  40  96 N8        29.93F FOG
DUBUQUE        CLOUDY    42  40  92 N8        29.92S FOG
DECORAH        CLOUDY    39  39 100 CALM      29.93S FOG
MASON CITY     CLOUDY    38  37  97 N6        29.95S WCI  33
CHARLES CITY   CLOUDY    41  41 100 N6        29.94S FOG
OELWEIN        CLOUDY    41  41 100 N6        29.94S FOG
$$

...ELSEWHERE IN IOWA...


CITY           SKY/WX    TMP DP  RH WIND       PRES   REMARKS
DES MOINES     CLOUDY    43  40  89 N9        29.93S
IOWA CITY      CLOUDY    47  44  90 NE7       29.94R FOG
FORT DODGE     CLOUDY    39  36  87 N5        29.95S
MARSHALLTOWN   CLOUDY    42  42 100 N7        29.92S FOG
CEDAR RAPIDS   CLOUDY    43  43 100 N10       29.91S FOG
$$

...NORTHERN ILLINOIS...


CITY           SKY/WX    TMP DP  RH WIND       PRES   REMARKS
CHICAGO-OHARE  CLOUDY    49  47  93 N5        29.92S FOG
CHICAGO-MIDWAY CLOUDY    50  48  93 SW7       29.93S
MOLINE         CLOUDY    49  45  86 CALM      29.92R FOG
ROCKFORD       CLOUDY    46  43  89 N7        29.94S
PEORIA         LGT RAIN  48  47  96 N3        29.92S FOG
$$

NOTE: "FAIR" INDICATES FEW OR NO CLOUDS BELOW 12,000 FEET WITH NO
SIGNIFICANT WEATHER AND/OR OBSTRUCTIONS TO VISIBILITY. WIND
SPEEDS ARE IN MILES-PER-HOUR.




USA.gov is the U.S. government's official web portal to all federal, state and local government web resources and services.